Simultaneous Nadir Overpasses (SNOs) Predictions

Prediction of SNOs between GOES-14 and NPP Satellite Orbit:

Table of predicted SNOs for the next 14.0 days since TLE Epoch: 12/31/2023
Index Date Time (GOES-14) GOES-14 Lat,Lon NPP Lat,Lon Distance(km) Time Diff (sec)
1 12/31/2023 20:46:36 0.07,-108.59 -0.38,-110.57 225.80 80
2 01/01/2024 20:30:33 0.07,-108.59 0.66,-106.04 290.24 80
3 01/03/2024 08:49:41 -0.08,-108.59 0.54,-111.31 310.06 80
4 01/04/2024 08:33:38 -0.07,-108.59 -0.50,-106.79 205.99 80
5 01/05/2024 20:52:55 0.07,-108.58 -0.70,-112.10 400.60 80
6 01/06/2024 20:36:50 0.07,-108.58 0.29,-107.56 115.32 80
7 01/08/2024 08:55:59 -0.06,-108.58 0.91,-112.83 485.36 80
8 01/09/2024 08:39:55 -0.06,-108.57 -0.13,-108.31 30.25 80
9 01/11/2024 20:40:28 0.05,-108.54 -0.06,-109.09 61.92 80
10 01/12/2024 20:24:24 0.05,-108.53 0.94,-104.55 453.40 80
